Simultaneous Nadir Overpasses (SNOs) Predictions

Prediction of SNOs between NOAA-19 and TERRA Satellite Orbit:

Table of predicted SNOs for the next 14.0 days since TLE Epoch: 1/26/2013
Index Date (NOAA-19) Time (NOAA-19) Lat,Lon (NOAA-19) SZA (NOAA-19 ) Date (TERRA) Time (TERRA) Lat,Lon (TERRA) SZA (TERRA ) Distance(km) Time Diff (sec)
1 01/26/2013 20:32:03 -70.09, 50.39 91.45 01/26/2013 20:33:11 -70.00, 52.41 91.59 77.52 68
2 01/26/2013 21:22:53 69.20,-141.05 87.62 01/26/2013 21:22:51 69.18,-141.05 87.60 2.24 2
3 01/26/2013 22:13:39 -68.58, 27.07 93.02 01/26/2013 22:12:28 -68.68, 25.94 92.90 46.57 71
4 01/29/2013 01:16:24 -69.75, -20.18 92.38 01/29/2013 01:17:35 -69.60, -19.20 92.56 41.16 71
5 01/29/2013 02:07:20 69.19, 147.86 87.04 01/29/2013 02:07:08 69.16, 147.86 87.01 3.06 12
6 01/29/2013 02:57:59 -68.23, -43.57 93.96 01/29/2013 02:56:51 -68.28, -45.61 93.87 84.17 68
7 01/31/2013 06:00:44 -69.41, -90.79 93.33 01/31/2013 06:01:55 -69.36, -90.59 93.39 9.55 71
8 01/31/2013 06:51:45 69.15, 76.82 86.39 01/31/2013 06:51:24 69.14, 76.76 86.39 2.25 21
9 02/02/2013 10:45:09 -69.30,-161.73 94.07 02/02/2013 10:46:13 -69.28,-161.77 94.10 2.89 64
10 02/02/2013 11:36:12 69.17, 5.69 85.79 02/02/2013 11:35:40 69.17, 5.73 85.79 1.71 32
11 02/04/2013 15:29:36 -69.31, 127.16 94.72 02/04/2013 15:30:29 -69.30, 127.19 94.73 1.24 53
12 02/04/2013 16:20:38 69.16, -65.39 85.12 02/04/2013 16:19:57 69.13, -65.39 85.10 2.74 41
13 02/06/2013 20:14:02 -69.27, 56.11
